Location: W�rzburg
(49.7529°N, 9.8822°E)
Time: 07:25:13
(UTC+02:00)

ISS - Visible Passes

Search period start: 29 March 2017 00:00
Search period end: 08 April 2017 00:00
Orbit: 399 x 409 km, 51.6° (Epoch: 29 March)

Date Brightness Start Highest point End Pass type
(mag) Time Alt. Az. Time Alt. Az. Time Alt. Az.
29 Mar -3.7 21:42:10 10° SW 21:45:05 57° S 21:45:05 57° S visible
30 Mar -3.3 20:50:01 10° SW 20:53:05 40° SSE 20:55:19 16° E visible
30 Mar -2.0 22:26:12 10° W 22:28:00 30° W 22:28:00 30° W visible
31 Mar -3.9 21:33:46 10° WSW 21:37:02 87° NNW 21:38:02 42° ENE visible
31 Mar -0.6 23:10:25 10° WNW 23:10:43 12° WNW 23:10:43 12° WNW visible
01 Apr -3.9 20:41:24 10° WSW 20:44:39 69° SSE 20:47:55 10° ENE visible
01 Apr -2.9 22:17:58 10° W 22:20:37 49° NW 22:20:37 49° NW visible
02 Apr -3.6 21:25:27 10° W 21:28:43 66° N 21:30:24 26° ENE visible
02 Apr -1.1 23:02:06 10° WNW 23:03:03 18° WNW 23:03:03 18° WNW visible
03 Apr -3.7 20:32:59 10° WSW 20:36:15 80° NNW 20:39:32 10° ENE visible
03 Apr -3.5 22:09:38 10° WNW 22:12:46 61° N 22:12:46 61° N visible
04 Apr -3.4 21:17:08 10° W 21:20:23 59° N 21:22:25 20° ENE visible
04 Apr -1.5 22:53:41 10° WNW 22:55:04 23° WNW 22:55:04 23° WNW visible
05 Apr -3.9 22:01:14 10° WNW 22:04:30 76° NNE 22:04:40 73° NE visible
06 Apr -3.6 21:08:44 10° WNW 21:11:59 64° N 21:14:15 18° E visible
06 Apr -1.8 22:45:15 10° WNW 22:46:54 26° W 22:46:54 26° W visible
07 Apr -3.9 21:52:44 10° WNW 21:56:01 75° SSW 21:56:28 60° SE visible
